This is the latest recevied weather packets stored in our database for station/object KC8ZBC. If no packets are shown the sender has not sent any weather packets the latest 10 day(s).
| Time | Temp. | Humidity | Pressure | Rain* | Wind** | Luminosity | Snow |
|---|---|---|---|---|---|---|---|
| 1778026204 | 11.11° C | 47% | 982.7 hPa | 0 mm | - | 0 W/m² | - |
| 1778025901 | 11.11° C | 45% | 982.7 hPa | 0 mm | - | 1 W/m² | - |
| 1778025598 | 11.11° C | 46% | 982.7 hPa | 0 mm | - | 1 W/m² | - |
| 1778025296 | 11.11° C | 45% | 982.7 hPa | 0 mm | - | 2 W/m² | - |
| 1778024993 | 11.11° C | 45% | 982.5 hPa | 0 mm | - | 5 W/m² | - |
| 1778024690 | 11.11° C | 45% | 982.7 hPa | 0 mm | - | 5 W/m² | - |
| 1778024387 | 11.67° C | 45% | 982.5 hPa | 0 mm | - | 10 W/m² | - |
| 1778024084 | 11.67° C | 44% | 982.3 hPa | 0 mm | - | 15 W/m² | - |
| 1778023782 | 11.67° C | 46% | 982.4 hPa | 0 mm | - | 17 W/m² | - |
| 1778023480 | 11.67° C | 46% | 982.4 hPa | 0 mm | - | 21 W/m² | - |
| 1778023176 | 11.67° C | 46% | 982.2 hPa | 0 mm | - | 22 W/m² | - |
| 1778022873 | 11.67° C | 44% | 982.2 hPa | 0 mm | - | 22 W/m² | - |
| 1778022572 | 11.67° C | 46% | 982.4 hPa | 0 mm | - | 26 W/m² | - |
| 1778022269 | 11.67° C | 45% | 982.4 hPa | 0 mm | - | 35 W/m² | - |
| 1778021965 | 11.67° C | 47% | 982.3 hPa | 0 mm | - | 35 W/m² | - |
| 1778021663 | 12.22° C | 46% | 982.4 hPa | 0 mm | - | 32 W/m² | - |
| 1778021358 | 12.22° C | 50% | 982.4 hPa | 0 mm | - | 39 W/m² | - |
| 1778021056 | 12.22° C | 50% | 982.4 hPa | 0 mm | - | 38 W/m² | - |
| 1778020752 | 12.22° C | 58% | 982.4 hPa | 0 mm | - | 40 W/m² | - |
| 1778020450 | 12.22° C | 57% | 982.4 hPa | 0 mm | - | 40 W/m² | - |
| 1778020146 | 12.22° C | 58% | 982.4 hPa | 0 mm | - | 43 W/m² | - |
| 1778019842 | 12.22° C | 57% | 982.4 hPa | 0 mm | - | 50 W/m² | - |
| 1778019538 | 12.22° C | 57% | 982.6 hPa | 0 mm | - | 46 W/m² | - |
| 1778019235 | 12.22° C | 56% | 982.4 hPa | 0 mm | - | 55 W/m² | - |
| 1778018932 | 12.22° C | 55% | 982.4 hPa | 0 mm | - | 61 W/m² | - |
* Rain latest hour (hover to see other rain measurements)
** Current wind speed in m/s (hover to see current wind gust speed)